User: anonymous   Login
Location: Caltech
(34.1382°N, 118.1253°W)
Time: 14:45:23
(UTC-07:00)
Language:

SEDSat Delta rocket - Orbit

View from above orbital plane
View from above orbital plane
View from above satellite
View from above satellite

Ground track
Ground track

The orbit data is extracted from the following two-line orbital elements,

1 25510U 98061C   15245.47930355  .00000308  00000-0  44877-4 0  9995
2 25510  31.4342 288.5163 0329786  45.5681  96.6160 14.36722355883217
Epoch (UTC): 02 September 2015 11:30:11
Eccentricity: 0.0329786
inclination: 31.4342°
perigee height: 533 km
apogee height: 1005 km
right ascension of ascending node: 288.5163°
argument of perigee: 45.5681°
revolutions per day: 14.36722355
mean anomaly at epoch: 96.6160°
orbit number at epoch: 88321

The dashed part of the orbit path shows where the satellite is in the earth's shadow,  

DLR